Temp
13 13 13 13 14 14 14 14 13 13 13 13 13 13 12 12 12 12 11 11 11 11 11 11 11 11 11 11 11 11 11 11 11 11 11 11 11 11 11 11 11 11
13 13 13 13 14 14 14 14 13 13 13 13 13 12 12 12 12 12 12 11 11 11 11 11 11 11 11 11 11 11 12 11 11 11 11 11 11 11 11 11 11 11
13 13 13 13 14 14 14 14 13 13 13 13 12 12 12 12 12 12 12 12 12 11 11 11 11 11 11 11 11 11 11 12 12 12 12 12 12 11 11 11 11 11
13 14 14 14 14 14 14 13 13 13 13 13 12 12 12 12 12 12 12 12 12 11 11 11 11 11 11 11 11 11 11 11 12 12 12 12 12 12 12 12 11 11
13 14 14 14 14 13 13 13 13 13 13 13 12 12 12 12 12 12 12 12 11 11 11 11 11 11 11 11 11 11 11 11 11 12 12 12 12 12 12 12 12 12
12 13 14 14 13 13 13 13 13 13 13 12 12 12 12 11 11 11 11 11 11 11 11 11 11 11 11 11 11 11 11 11 11 11 11 11 12 12 12 12 12 12
12 12 13 14 13 13 12 12 12 12 12 12 12 12 11 11 11 11 11 11 11 11 10 10 10 10 10 10 10 10 10 10 10 11 11 11 11 11 11 11 11 11
12 12 13 13 13 12 12 12 12 12 11 11 12 12 11 11 11 11 11 11 10 10 10 10 10 10 9 9 9 10 10 10 10 10 10 10 10 10 10 11 11 11
11 12 12 13 13 12 12 12 11 11 11 11 11 11 11 11 11 10 10 10 10 10 10 10 10 10 10 10 10 9 9 9 9 10 10 10 10 10 10 10 10 10
11 11 12 12 12 12 12 11 11 11 11 11 11 11 11 11 10 10 10 10 10 10 10 10 10 10 10 10 10 9 9 9 9 9 9 9 9 9 9 9 9 9
11 11 12 12 12 12 12 11 11 11 11 11 11 11 11 11 10 10 10 10 10 10 10 10 10 10 10 10 10 10 10 9 9 9 9 9 9 9 9 9 9 9
11 11 11 12 12 12 11 11 11 11 11 11 11 11 11 11 11 10 10 10 10 10 10 10 10 10 10 10 10 10 10 10 9 9 9 9 9 9 9 9 9 9
11 11 11 11 11 11 11 11 11 11 11 11 11 11 11 11 11 11 10 10 10 10 10 10 10 10 10 10 10 9 10 9 9 9 9 9 9 9 9 9 9 9
10 10 11 11 11 10 11 11 11 10 10 10 10 10 10 10 10 10 10 9 9 9 9 9 10 10 10 10 9 9 9 9 9 9 9 9 9 9 9 9 9 9
10 10 10 10 10 10 10 10 10 10 11 10 10 10 10 10 10 10 9 9 9 9 9 9 9 9 9 9 9 9 9 9 9 9 8 8 9 9 9 9 9 9
10 10 10 10 10 10 10 10 10 11 11 10 10 10 9 10 9 9 9 9 9 9 9 9 9 9 9 9 9 9 9 9 9 8 9 9 9 9 9 9 9 9
10 10 10 10 10 10 10 10 10 10 10 10 10 9 9 9 9 9 9 9 9 9 9 9 9 9 9 9 9 9 9 9 9 8 9 9 9 9 9 9 9 9
10 10 10 10 10 10 10 10 10 10 10 10 10 10 10 10 10 9 9 9 9 9 9 9 9 9 9 9 9 9 9 9 9 8 8 8 8 8 8 8 8 8
10 10 10 10 10 10 10 10 10 10 10 10 10 9 9 9 9 9 9 9 9 9 9 9 9 9 9 9 9 8 8 8 8 8 8 8 8 8 8 8 8 8
10 10 10 10 9 10 9 9 9 9 9 9 9 9 9 9 9 9 9 9 9 9 9 9 9 9 8 8 8 8 8 8 8 8 8 8 8 8 8 8 8 8
9 9 9 9 9 9 9 9 9 9 9 9 9 9 9 9 9 9 9 9 9 9 9 9 9 9 9 8 8 8 8 8 8 8 8 8 8 8 8 8 8 8
9 9 9 9 9 9 9 9 9 9 9 9 9 9 9 9 9 8 8 8 8 8 8 8 8 8 8 8 8 8 8 8 8 8 8 8 8 8 7 7 7 7
9 9 9 9 9 8 8 8 8 8 8 8 8 8 8 8 8 8 8 8 8 8 8 8 8 8 8 8 8 8 8 8 8 8 8 8 8 7 7 7 7 7
8 8 8 8 8 8 8 8 8 8 8 8 8 8 8 8 8 8 8 8 8 8 8 8 8 8 8 8 8 8 8 8 7 7 7 7 7 7 7 7 7 6
8 8 8 8 8 8 8 8 8 8 8 8 8 8 8 8 7 7 7 7 7 7 7 7 7 7 7 7 7 7 7 7 7 7 7 7 7 7 6 6 6 5
8 8 8 8 8 8 8 8 8 8 8 8 8 8 7 7 7 7 7 7 7 7 7 7 7 7 7 6 6 6 6 6 7 6 6 6 6 6 5 5 5 5
Height
1532 1533 1535 1536 1537 1539 1539 1540 1540 1541 1541 1542 1543 1544 1544 1545 1545 1546 1546 1546 1547 1547 1547 1548 1548 1549 1549 1548 1548 1547 1547 1547 1546 1546 1546 1547 1547 1547 1547 1547 1547 1547
1531 1532 1534 1535 1537 1538 1539 1540 1541 1541 1542 1543 1544 1544 1545 1546 1546 1547 1547 1547 1547 1548 1548 1549 1549 1550 1550 1550 1549 1549 1548 1548 1548 1547 1547 1547 1547 1547 1547 1547 1547 1547
1530 1532 1533 1535 1536 1538 1539 1540 1541 1541 1542 1543 1544 1545 1546 1547 1547 1547 1548 1548 1548 1549 1549 1550 1551 1551 1551 1551 1551 1550 1550 1550 1549 1549 1549 1548 1548 1548 1548 1548 1547 1547
1529 1531 1532 1534 1536 1537 1539 1540 1541 1542 1543 1544 1545 1546 1547 1547 1548 1548 1548 1549 1550 1550 1551 1551 1552 1552 1552 1552 1552 1551 1551 1551 1551 1550 1550 1550 1549 1549 1549 1548 1548 1548
1529 1530 1532 1533 1535 1536 1538 1539 1541 1542 1543 1544 1545 1546 1547 1548 1548 1548 1549 1550 1551 1551 1552 1552 1553 1553 1553 1553 1553 1552 1552 1552 1551 1551 1551 1551 1550 1550 1550 1549 1549 1549
1528 1529 1531 1532 1534 1536 1537 1538 1540 1542 1543 1544 1545 1546 1547 1548 1548 1549 1550 1551 1551 1552 1552 1553 1553 1554 1554 1554 1553 1553 1553 1553 1552 1552 1552 1552 1552 1551 1551 1551 1550 1550
1527 1529 1530 1532 1533 1534 1536 1538 1540 1541 1543 1544 1545 1546 1547 1548 1549 1550 1550 1551 1552 1552 1553 1553 1554 1554 1554 1555 1554 1554 1554 1554 1553 1553 1553 1552 1552 1552 1552 1552 1551 1550
1526 1528 1529 1530 1532 1533 1536 1537 1539 1541 1542 1543 1544 1545 1546 1547 1548 1549 1550 1551 1551 1552 1553 1553 1553 1554 1554 1554 1555 1555 1555 1554 1554 1554 1553 1553 1553 1553 1553 1552 1552 1551
1524 1526 1527 1529 1531 1532 1534 1536 1538 1540 1541 1542 1543 1544 1546 1546 1547 1548 1549 1550 1551 1552 1552 1552 1552 1553 1554 1554 1554 1554 1554 1554 1554 1554 1553 1553 1553 1553 1553 1553 1553 1552
1523 1525 1526 1528 1530 1531 1533 1535 1537 1538 1540 1541 1542 1543 1544 1545 1547 1548 1548 1549 1550 1550 1551 1551 1551 1552 1553 1553 1554 1553 1553 1553 1553 1553 1552 1552 1553 1553 1553 1553 1553 1552
1521 1523 1525 1527 1528 1530 1532 1534 1536 1537 1538 1540 1541 1542 1543 1544 1546 1547 1547 1548 1548 1548 1549 1549 1550 1550 1551 1552 1552 1552 1552 1551 1551 1552 1552 1552 1552 1552 1552 1552 1552 1552
1520 1522 1524 1526 1527 1528 1530 1533 1534 1535 1537 1538 1539 1540 1541 1543 1544 1545 1546 1547 1547 1547 1548 1548 1548 1549 1549 1549 1550 1550 1550 1550 1550 1550 1551 1551 1551 1551 1551 1551 1551 1550
1519 1521 1523 1525 1525 1527 1529 1531 1533 1534 1535 1537 1538 1538 1539 1541 1542 1542 1544 1545 1545 1545 1546 1546 1546 1546 1546 1547 1548 1548 1548 1548 1548 1548 1549 1549 1550 1550 1550 1550 1550 1549
1519 1521 1523 1524 1524 1526 1529 1531 1532 1533 1534 1535 1536 1536 1537 1538 1539 1540 1541 1543 1543 1543 1543 1544 1543 1544 1544 1544 1545 1546 1546 1546 1545 1545 1546 1547 1547 1548 1548 1548 1548 1548
1519 1520 1522 1523 1524 1526 1529 1530 1531 1532 1532 1532 1533 1534 1534 1535 1536 1537 1538 1540 1540 1540 1541 1541 1541 1541 1542 1542 1542 1543 1543 1542 1542 1543 1543 1544 1545 1545 1545 1545 1545 1545
1519 1520 1521 1522 1523 1525 1527 1528 1529 1530 1530 1530 1531 1531 1532 1533 1534 1535 1536 1537 1537 1538 1539 1539 1539 1540 1540 1540 1540 1540 1540 1539 1539 1540 1541 1542 1542 1542 1542 1542 1542 1542
1518 1519 1520 1521 1522 1523 1525 1526 1527 1528 1528 1529 1529 1530 1531 1532 1533 1534 1534 1535 1536 1536 1537 1538 1538 1538 1538 1538 1538 1538 1538 1538 1538 1539 1539 1539 1540 1539 1539 1539 1539 1539
1518 1519 1520 1521 1522 1523 1524 1525 1526 1527 1527 1528 1529 1530 1531 1532 1532 1533 1533 1534 1535 1535 1536 1536 1536 1536 1536 1537 1537 1537 1537 1537 1537 1537 1538 1538 1538 1537 1537 1537 1536 1536
1519 1520 1520 1521 1522 1522 1523 1524 1525 1525 1526 1527 1528 1529 1530 1531 1532 1532 1533 1534 1534 1535 1535 1535 1535 1536 1536 1536 1536 1536 1536 1536 1536 1536 1536 1536 1536 1536 1535 1535 1534 1534
1519 1519 1520 1520 1521 1521 1522 1523 1523 1524 1525 1526 1527 1528 1529 1530 1531 1532 1533 1533 1534 1534 1534 1534 1534 1534 1534 1534 1535 1535 1535 1535 1535 1535 1535 1534 1534 1533 1533 1533 1532 1532
1519 1519 1520 1520 1521 1521 1522 1522 1523 1524 1525 1526 1527 1528 1529 1530 1531 1531 1532 1533 1533 1533 1533 1533 1533 1533 1533 1533 1533 1533 1533 1533 1533 1533 1533 1532 1532 1531 1531 1531 1530 1530
1519 1520 1520 1521 1521 1522 1522 1523 1524 1525 1526 1527 1528 1528 1529 1530 1530 1531 1531 1532 1532 1532 1532 1532 1532 1532 1532 1532 1532 1531 1531 1531 1531 1531 1530 1530 1530 1530 1529 1529 1529 1528
1520 1520 1521 1521 1521 1522 1523 1523 1524 1525 1525 1526 1527 1528 1528 1529 1529 1530 1530 1530 1531 1531 1531 1531 1531 1531 1531 1530 1530 1530 1529 1529 1529 1529 1528 1528 1528 1528 1528 1527 1527 1527
1521 1521 1521 1521 1521 1522 1522 1523 1524 1524 1525 1525 1526 1527 1527 1528 1528 1529 1529 1529 1529 1530 1530 1530 1530 1529 1529 1529 1528 1528 1528 1527 1527 1527 1527 1526 1526 1526 1526 1526 1525 1525
1520 1521 1521 1521 1521 1521 1522 1522 1523 1523 1523 1524 1525 1525 1526 1526 1527 1527 1527 1528 1528 1528 1528 1528 1528 1528 1527 1527 1527 1526 1526 1526 1525 1525 1525 1525 1524 1524 1524 1524 1524 1523
1519 1519 1519 1520 1520 1520 1520 1521 1521 1521 1522 1522 1523 1524 1524 1525 1525 1525 1526 1526 1526 1526 1526 1526 1526 1526 1525 1525 1525 1525 1524 1524 1524 1523 1523 1523 1523 1523 1522 1522 1522 1522
Wind_Speed
10 10 7 5 6 7 5 4 4 5 5 5 6 6 6 6 5 4 3 3 2 2 2 3 3 4 4 4 5 5 5 5 5 6 6 7 7 7 7 7 7 7
12 11 9 6 7 10 8 6 6 6 6 6 5 6 5 5 5 4 4 3 3 2 2 2 3 3 3 4 5 6 6 6 6 6 6 6 6 7 7 7 7 7
13 12 9 7 9 12 11 9 8 7 8 7 6 5 4 4 4 4 4 3 3 2 2 2 2 2 3 3 4 5 6 7 7 7 7 7 7 7 7 8 7 7
15 12 9 8 11 13 13 11 9 8 9 8 7 6 5 4 3 3 3 2 2 2 1 1 1 1 2 2 3 4 5 6 7 7 7 7 8 8 7 7 8 7
16 13 11 12 14 13 13 12 11 10 9 9 8 7 5 4 3 2 2 1 0 0 0 1 1 1 2 2 2 2 2 3 4 5 5 6 6 7 7 7 7 7
18 16 14 15 15 14 11 11 10 10 9 9 8 7 6 4 3 2 1 1 1 2 2 2 3 3 3 3 2 2 2 1 2 2 2 3 4 4 4 5 5 5
20 18 16 16 17 15 11 9 9 9 9 9 10 9 7 5 4 3 3 3 4 4 5 5 5 5 5 5 4 4 4 3 3 2 2 1 1 1 2 2 2 3
22 19 18 18 18 16 13 10 10 9 9 11 12 12 10 9 8 8 7 7 7 6 6 6 7 7 7 7 6 5 5 4 4 3 3 3 3 2 2 1 1 0
23 20 20 20 18 16 14 13 13 12 11 12 13 13 13 13 13 11 10 10 9 8 8 7 8 9 9 7 6 6 6 6 5 4 3 3 3 4 4 4 3 2
23 21 22 21 19 17 17 17 16 15 13 13 14 14 15 16 16 14 13 14 13 13 13 12 11 11 11 10 9 9 9 8 8 8 7 6 5 5 5 5 5 5
22 21 22 21 19 18 19 19 18 17 16 16 17 16 16 16 16 15 15 16 16 16 16 16 15 15 16 16 14 12 10 9 10 12 12 11 10 9 8 8 7 6
19 19 20 20 18 18 19 20 19 17 16 17 19 20 19 19 19 18 17 18 18 18 17 18 19 19 19 19 18 16 14 12 10 11 13 14 14 14 13 12 11 10
14 14 15 16 18 19 19 19 19 18 16 16 18 20 20 20 21 21 21 21 21 19 19 21 22 21 20 18 17 17 16 14 12 12 13 14 14 15 14 12 11 11
13 12 12 14 16 16 17 18 18 17 17 17 17 19 20 20 20 21 22 22 21 20 20 21 23 22 19 17 16 16 16 15 14 14 15 15 15 15 14 13 12 14
14 13 13 14 13 12 13 16 16 16 19 20 20 21 22 21 20 19 20 21 20 19 19 20 21 20 17 15 15 16 16 16 15 16 16 16 15 16 16 17 17 17
13 13 14 14 14 13 13 14 15 15 16 16 14 12 13 13 13 13 13 13 13 13 14 14 13 11 11 11 13 14 15 15 16 17 17 17 17 18 18 18 18 17
11 11 12 13 12 11 10 10 10 10 8 6 5 4 4 4 5 5 4 4 5 6 6 6 5 5 6 7 8 9 11 12 14 15 15 16 17 17 17 17 17 16
8 8 9 9 9 8 8 8 8 7 6 5 4 3 3 3 2 3 3 3 4 5 5 6 6 7 7 8 8 9 9 10 10 10 10 11 12 13 13 14 14 14
8 8 8 8 8 8 8 8 7 6 5 4 4 3 2 2 2 2 3 5 6 6 7 8 8 9 10 10 10 10 11 10 10 9 9 9 9 10 11 12 12 13
7 7 7 6 6 6 6 5 5 4 4 3 3 3 3 4 4 5 5 6 7 7 8 9 11 11 12 13 13 13 13 13 12 11 11 10 10 10 11 11 12 13
7 7 7 7 7 7 6 6 5 5 5 5 6 5 5 5 5 5 5 5 6 6 8 9 10 11 12 13 13 14 14 14 14 14 14 14 13 12 12 12 12 12
6 6 7 8 8 8 8 7 7 7 7 7 7 7 6 6 5 5 4 4 5 6 7 9 10 11 12 12 13 13 14 14 15 15 16 16 15 14 13 13 12 13
4 5 6 8 9 9 9 9 8 8 7 7 7 7 6 5 5 5 6 7 8 8 9 10 11 12 13 13 14 14 14 14 13 14 15 15 15 15 14 13 13 13
6 6 7 8 9 9 10 9 9 8 7 7 6 6 6 6 7 8 9 10 10 10 12 12 13 13 13 14 14 15 15 15 14 13 13 13 14 14 14 13 12 12
10 11 10 9 9 10 10 10 9 9 8 8 8 8 8 8 9 9 10 11 11 12 14 14 15 15 15 14 14 15 15 15 15 14 13 12 13 13 12 12 11 11
13 13 13 12 12 12 12 12 12 11 11 11 11 11 10 10 10 10 11 12 13 15 15 16 17 17 16 16 16 16 16 16 15 14 13 12 12 11 11 10 11 11
Wind_Direction
221 227 236 242 218 207 194 174 164 146 137 128 120 116 113 111 106 103 99 91 82 65 56 57 53 44 37 44 53 61 67 64 62 65 65 67 69 68 70 70 68 70
219 223 230 237 214 204 198 181 175 165 154 150 143 134 125 119 113 108 101 94 92 89 77 69 65 52 45 52 53 53 60 63 67 69 64 63 65 68 71 69 65 66
219 222 226 226 206 203 201 189 185 180 171 171 169 161 155 149 138 125 116 110 107 107 98 79 60 43 38 54 64 62 61 63 65 64 61 62 65 68 71 70 67 67
217 222 224 213 201 203 206 201 198 196 189 186 185 188 187 177 164 152 140 132 125 118 111 88 42 7 8 33 62 71 71 72 73 70 63 62 65 69 72 72 69 67
221 225 220 207 200 204 209 208 209 211 207 201 197 198 196 185 179 176 174 181 206 308 350 359 327 312 320 342 9 37 57 65 75 82 80 73 73 74 75 77 74 71
226 227 217 208 205 204 206 206 207 211 214 214 211 207 202 197 194 195 205 246 299 314 325 330 327 315 308 312 319 327 334 339 12 55 79 87 90 86 81 83 82 81
229 230 218 210 211 209 207 204 201 201 207 214 219 220 218 216 222 236 257 275 284 295 314 322 325 324 318 317 317 314 312 303 302 316 325 342 40 56 62 68 73 82
228 232 224 217 217 215 212 213 209 206 208 211 217 223 225 228 233 238 250 263 267 273 286 295 299 300 299 304 307 308 312 310 300 297 303 313 321 320 313 314 328 323
224 229 226 222 221 217 215 217 215 214 218 215 216 222 228 235 241 241 244 253 261 268 269 266 273 282 284 284 284 289 299 304 300 294 296 312 322 318 311 307 304 295
224 225 226 225 224 220 220 221 219 222 229 224 220 228 239 248 252 250 247 249 253 259 263 269 276 282 285 280 272 275 284 289 292 293 295 301 307 308 307 306 304 301
228 227 227 227 226 224 224 224 225 233 240 235 230 237 248 255 256 254 252 252 254 256 259 266 273 275 279 278 270 266 269 274 284 291 295 296 296 295 294 293 291 290
232 230 228 229 230 231 227 223 227 238 246 242 240 245 250 252 252 251 252 254 260 262 264 270 273 272 275 276 269 262 262 264 271 281 287 288 288 286 285 282 281 280
228 227 226 229 231 228 223 222 228 238 246 247 248 250 251 254 256 255 254 256 259 261 266 274 276 274 275 276 269 263 263 267 271 274 276 277 279 281 278 274 277 280
216 219 221 225 225 219 218 225 234 242 250 256 257 255 255 258 261 259 257 259 260 260 266 271 272 272 273 273 269 264 263 267 272 274 271 268 269 274 271 267 273 279
218 224 227 229 230 223 222 234 244 249 255 260 263 263 262 261 262 259 257 259 261 264 268 270 269 269 269 268 269 269 269 270 273 274 271 265 264 266 265 266 273 276
224 228 230 234 240 242 240 243 249 253 255 257 259 262 260 255 254 254 254 256 258 261 265 267 268 268 268 272 277 279 279 278 274 271 268 265 263 263 264 267 271 270
220 224 228 233 236 238 236 233 235 236 233 231 229 225 224 227 235 244 249 250 248 252 260 267 274 278 281 286 289 289 286 280 276 272 270 269 267 267 269 271 271 269
188 194 197 199 195 189 188 186 188 191 188 187 189 189 195 203 215 235 249 253 255 261 270 275 278 280 283 286 287 286 283 280 279 278 276 275 276 277 278 279 279 277
162 168 169 170 167 165 168 170 172 178 180 181 181 175 177 192 215 238 248 254 259 263 266 267 270 273 276 280 281 282 281 282 282 282 283 285 286 286 287 288 289 288
175 178 173 170 168 162 162 161 166 177 182 191 209 226 242 251 253 255 255 256 260 263 267 269 272 274 275 276 277 278 278 279 280 280 283 288 291 294 297 298 299 297
182 182 180 179 177 174 172 169 173 187 198 212 227 237 244 248 248 249 252 257 263 269 275 279 280 282 282 281 281 280 278 276 276 277 279 282 286 291 298 303 305 303
187 186 185 184 183 184 185 184 189 196 202 210 214 216 219 224 229 239 255 272 284 290 292 292 293 293 293 295 295 293 290 285 279 276 276 278 280 283 288 297 303 304
204 204 195 188 186 187 187 190 195 200 205 209 211 215 222 231 246 266 280 288 293 294 292 292 294 295 296 298 299 299 300 298 292 282 276 275 276 278 282 287 294 299
246 239 220 200 192 191 193 198 204 207 212 216 222 233 244 256 269 278 283 286 288 288 288 290 294 298 298 297 298 299 300 301 300 295 286 280 278 279 282 285 288 294
243 240 233 224 220 220 221 223 226 230 235 242 249 257 263 269 277 282 284 288 290 293 297 299 302 305 307 305 305 305 304 304 304 302 299 292 287 285 286 288 291 295
244 243 241 242 245 246 244 244 247 250 254 260 265 270 274 275 279 283 286 290 294 297 300 302 304 307 310 312 312 311 310 311 311 309 306 299 293 290 290 292 296 299